Weather Roundup
Issued by NWS Chicago, IL

Home | Current Version | Previous Version | Graphics & Text | Print | Product List | Glossary On
Versions: 1 2 3 4 5 6 7 8 9 10 11 12 13 14 15 16 17 18 19 20 21 22 23 24 25 26 27 28 29 30 31 32 33 34 35 36 37 38 39 40 41 42 43 44 45 46 47 48 49 50
000
NZUS59 KLOT 301008
HRRLOT

CHICAGO AREA WEATHER ROUNDUP
NATIONAL WEATHER SERVICE CHICAGO/ROMEOVILLE IL
500 AM CDT MON MAR 30 2015

NOTE: "FAIR" INDICATES FEW OR NO CLOUDS BELOW 12,000 FEET WITH NO
SIGNIFICANT WEATHER AND/OR OBSTRUCTIONS TO VISIBILITY.

* THESE STATIONS ARE NOT UNDER NWS QUALITY CONTROL. THEY ALSO MAY NOT
  REPORT WEATHER SUCH AS PRECIPITATION OR FOG.

ILZ005-006-012>014-019>023-301100-
NORTHEAST ILLINOIS

CITY           SKY/WX    TMP DP  RH WIND       PRES   REMARKS
OHARE          CLEAR     36  28  73 W8        29.98R
MIDWAY         CLEAR     38  29  70 W7        29.99R
AURORA         CLEAR     32  26  78 CALM      30.01R
LANSING*       CLEAR     34  27  75 CALM      29.99R
JOLIET*        CLEAR     36  30  79 W5        30.01R
WAUKEGAN       CLEAR     35  29  78 SW3       29.96R
DUPAGE AIRPORT CLEAR     37  28  70 W14       29.99R
WHEELING       CLEAR     37  28  70 W6        29.99R
KANKAKEE*      CLEAR     33  30  88 W8        30.02R WCI  26
MORRIS*        CLEAR     33  28  85 W10       30.01R WCI  24
LEWIS AIRPORT* CLEAR     32  27  80 W7        30.01R WCI  26
NORTHERLY IS     N/A     40  30  68 W9          N/A
$$

WIZ051-052-058>065-066-070>072-301100-
SOUTHEAST WISCONSIN

CITY           SKY/WX    TMP DP  RH WIND       PRES   REMARKS
MILWAUKEE      PTCLDY    36  29  75 W5        29.94R
KENOSHA*       CLEAR     33  29  85 W9        29.95R WCI  25
RACINE*        CLEAR     35  28  75 W7        29.96R WCI  29
BURLINGTON     CLEAR     28  26  93 SW3       29.96R
WAUKESHA       CLEAR     34  28  80 W7        29.95R WCI  28
WEST BEND      CLEAR     36  28  75 W12       29.91R
$$

INZ001>003-010>013-019-020-301100-
NORTHWEST INDIANA

CITY           SKY/WX    TMP DP  RH WIND       PRES   REMARKS
GARY*          CLEAR     34  27  75 W6        29.98S WCI  29
MICHIGAN CITY* NOT AVBL
RENSSELAER*    NOT AVBL
VALPARAISO     CLEAR     31  28  89 W8        29.98R WCI  23
$$

LMZ740>746-301100-
SOUTHERN LAKE MICHIGAN

STATION/POSITION TIME  SKY/WX   TEMP WIND        PRES    VSBY
                                AIR  DIR/SP/G
                 (UTC)          (F)  (DEG/KT/KT) (MB)    (MI)
HARRISON CRIB    0900            41  280/ 14/ 17   N/A
BURNHAM HARBOR   1000            40  270/  8/ 11   N/A
CALUMET HARBOR   0900            38  230/  4/  6 1013.7R
BURNS HARBOR     0900            40  260/ 11/ 12 1015.2S
MICHIGAN CITY    0900            38  220/ 13/ 14   N/A
$$

ABBREVIATIONS USED IN REMARKS
   TC - TEMPERATURE IN CELSIUS
  WCI - WIND CHILL INDEX
   HX - HEAT INDEX
  VSB - VISIBILITY
$$



USA.gov is the U.S. government's official web portal to all federal, state and local government web resources and services.